Weather History for Ankara, Turkey

Change the Weather History Date:

Saturday, November 12, 2011

  Actual Average Record
Temperature  
Mean Temperature 29 °F -  
Max Temperature 38 °F 47 °F 71 °F (1997)
Min Temperature 20 °F 26 °F 19 °F (1996)
Degree Days  
Heating Degree Days 36    
Moisture  
Dew Point 18 °F    
Average Humidity 64    
Maximum Humidity 86    
Minimum Humidity 38    
Precipitation  
Precipitation 0.00 in - - ()
Sea Level Pressure  
Sea Level Pressure 30.32 in    
Wind  
Wind Speed 9 mph ()    
Max Wind Speed 14 mph    
Max Gust Speed -    
Visibility 6.7 miles    
Events      
Averages and records for this station are not official NWS values.
T = Trace of Precipitation, MM = Missing Value Source: Averaged Metar Reports

Daily Weather History Graph

Daily Weather History Graph

Search for Another Location

Airport:

Trip Planner

Search our weather history database for the weather conditions in past years. The results will help you decide how hot, cold, wet, or windy it might be!

Date:

Astronomy

Nov. 12, 2011 Rise Set
Actual Time 6:29 AM EET 4:34 PM EET
Civil Twilight 6:00 AM EET 5:03 PM EET
Nautical Twilight 5:27 AM EET 5:35 PM EET
Astronomical Twilight 4:55 AM EET 6:07 PM EET
Moon 5:33 PM EET (11/12) 7:53 AM EET (11/12)
Length of Visible Light 11h 02m
Length of Day
10h 05m
Full, 98% of the Moon is Illuminated
Nov 12
Full
Nov 18
Last Quarter
Nov 25
New
Dec 2
First Quarter
Dec 10
Full

Hourly Weather History & Observations

Time (EET) Temp. Windchill Dew Point Humidity Pressure Visibility Wind Dir Wind Speed Gust Speed Precip Events Conditions
12:20 AM 33.8 °F 24.3 °F 24.8 °F 70% 30.24 in 6.2 mi WNW 13.8 mph - N/A   Scattered Clouds
12:50 AM 32.0 °F 23.6 °F 24.8 °F 75% 30.24 in 6.2 mi WNW 10.4 mph - N/A   Scattered Clouds
1:20 AM 32.0 °F 23.0 °F 23.0 °F 69% 30.24 in 6.2 mi WNW 11.5 mph - N/A   Scattered Clouds
1:50 AM 32.0 °F 23.6 °F 23.0 °F 69% 30.27 in 6.2 mi WNW 10.4 mph - N/A   Scattered Clouds
2:00 AM 31 °F - 22 °F 60% 30.34 in 12 mi WNW 10.4 mph - -   Partly Cloudy
2:20 AM 28.4 °F 19.7 °F 23.0 °F 80% 30.27 in 6.2 mi North 9.2 mph - N/A   Scattered Clouds
2:50 AM 26.6 °F 19.1 °F 21.2 °F 80% 30.27 in 6.2 mi North 6.9 mph - N/A   Scattered Clouds
3:20 AM 24.8 °F 15.3 °F 21.2 °F 86% 30.27 in 6.2 mi North 9.2 mph - N/A   Scattered Clouds
3:50 AM 24.8 °F 16.9 °F 19.4 °F 80% 30.30 in 6.2 mi NNE 6.9 mph - N/A   Scattered Clouds
4:20 AM 26.6 °F 21.2 °F 19.4 °F 74% 30.30 in 6.2 mi NNW 4.6 mph - N/A   Scattered Clouds
4:50 AM 24.8 °F 20.5 °F 17.6 °F 74% 30.30 in 6.2 mi North 3.5 mph - N/A   Scattered Clouds
5:20 AM 21.2 °F 12.6 °F 17.6 °F 86% 30.30 in 6.2 mi NW 6.9 mph - N/A   Partly Cloudy
5:50 AM 23.0 °F 18.4 °F 17.6 °F 80% 30.30 in 6.2 mi NNE 3.5 mph - N/A   Partly Cloudy
6:20 AM 23.0 °F 17.0 °F 17.6 °F 80% 30.30 in 6.2 mi ESE 4.6 mph - N/A   Partly Cloudy
6:50 AM 23.0 °F - 17.6 °F 80% 30.33 in 6.2 mi Variable 2.3 mph - N/A   Partly Cloudy
7:20 AM 23.0 °F 15.8 °F 19.4 °F 86% 30.33 in 6.2 mi North 5.8 mph - N/A   Partly Cloudy
7:50 AM 26.6 °F 19.1 °F 19.4 °F 74% 30.33 in 6.2 mi North 6.9 mph - N/A   Partly Cloudy
8:00 AM 27 °F - 19 °F 62% 30.48 in 12 mi North 6.9 mph - -   Scattered Clouds
8:20 AM 28.4 °F 19.7 °F 19.4 °F 69% 30.33 in 6.2 mi NNE 9.2 mph - N/A   Partly Cloudy
8:50 AM 30.2 °F 19.8 °F 19.4 °F 64% 30.33 in 6.2 mi NE 13.8 mph - N/A   Partly Cloudy
9:20 AM 32.0 °F 22.1 °F 19.4 °F 60% 30.33 in 6.2 mi NNE 13.8 mph - N/A   Partly Cloudy
9:50 AM 33.8 °F 24.3 °F 17.6 °F 52% 30.33 in 6.2 mi NNE 13.8 mph - N/A   Partly Cloudy
10:20 AM 33.8 °F 25.3 °F 17.6 °F 52% 30.33 in 6.2 mi NE 11.5 mph - N/A   Partly Cloudy
10:50 AM 35.6 °F 27.5 °F 15.8 °F 44% 30.33 in 6.2 mi ENE 11.5 mph - N/A   Partly Cloudy
11:20 AM 35.6 °F 27.5 °F 15.8 °F 44% 30.33 in 6.2 mi NE 11.5 mph - N/A   Partly Cloudy
11:50 AM 35.6 °F 26.6 °F 15.8 °F 44% 30.33 in 6.2 mi ENE 13.8 mph - N/A   Partly Cloudy
12:20 PM 35.6 °F 27.1 °F 15.8 °F 44% 30.30 in 6.2 mi East 12.7 mph - N/A   Partly Cloudy
12:50 PM 35.6 °F 27.5 °F 15.8 °F 44% 30.30 in 6.2 mi East 11.5 mph - N/A   Partly Cloudy
1:20 PM 37.4 °F 29.8 °F 15.8 °F 41% 30.30 in 6.2 mi ENE 11.5 mph - N/A   Partly Cloudy
1:50 PM 37.4 °F 30.3 °F 15.8 °F 41% 30.30 in 6.2 mi East 10.4 mph - N/A   Partly Cloudy
2:20 PM 37.4 °F 30.3 °F 15.8 °F 41% 30.30 in 6.2 mi ENE 10.4 mph - N/A   Partly Cloudy
2:50 PM 37.4 °F 30.8 °F 14.0 °F 38% 30.30 in 6.2 mi East 9.2 mph - N/A   Partly Cloudy
3:20 PM 37.4 °F 30.8 °F 14.0 °F 38% 30.30 in 6.2 mi East 9.2 mph - N/A   Partly Cloudy
3:50 PM 37.4 °F 29.8 °F 14.0 °F 38% 30.30 in - East 11.5 mph - N/A   Clear
4:20 PM 35.6 °F 27.5 °F 15.8 °F 44% 30.30 in - East 11.5 mph - N/A   Clear
4:50 PM 33.8 °F 26.4 °F 15.8 °F 48% 30.33 in - East 9.2 mph - N/A   Clear
5:20 PM 33.8 °F 27.0 °F 17.6 °F 52% 30.33 in - East 8.1 mph - N/A   Clear
5:50 PM 32.0 °F 26.4 °F 15.8 °F 51% 30.33 in - ENE 5.8 mph - N/A   Clear
6:20 PM 28.4 °F 23.3 °F 17.6 °F 64% 30.33 in - NNE 4.6 mph - N/A   Clear
6:50 PM 28.4 °F 24.6 °F 17.6 °F 64% 30.33 in - North 3.5 mph - N/A   Clear
7:20 PM 28.4 °F 21.2 °F 17.6 °F 64% 30.33 in - North 6.9 mph - N/A   Clear
7:50 PM 24.8 °F 16.1 °F 17.6 °F 74% 30.33 in - NNE 8.1 mph - N/A   Clear
8:00 PM 25 °F - 18 °F 63% 30.52 in 12 mi NNE 8.1 mph - -  
8:20 PM 26.6 °F 19.1 °F 17.6 °F 69% 30.33 in - NE 6.9 mph - N/A   Clear
8:50 PM 24.8 °F 16.9 °F 17.6 °F 74% 30.33 in - North 6.9 mph - N/A   Clear
9:20 PM 23.0 °F 15.8 °F 17.6 °F 80% 30.33 in - North 5.8 mph - N/A   Clear
9:50 PM 23.0 °F 15.8 °F 17.6 °F 80% 30.33 in - NE 5.8 mph - N/A   Clear
10:20 PM 23.0 °F 13.1 °F 17.6 °F 80% 30.33 in - NNE 9.2 mph - N/A   Clear
10:50 PM 23.0 °F 12.4 °F 17.6 °F 80% 30.33 in - NNE 10.4 mph - N/A   Clear
11:20 PM 23.0 °F 11.7 °F 17.6 °F 80% 30.33 in - NNE 11.5 mph - N/A   Clear
11:50 PM 23.0 °F 11.7 °F 17.6 °F 80% 30.33 in - NNE 11.5 mph - N/A   Clear